Back to catalog

STARLINK-4327

AliveCommunicationsSSO
NORAD 53079·PAYLOAD·🇺🇸 United States

Launched Jul 11, 2022 from Vandenberg Space Force Base

Loading…

Next Passes (next 24 hours)

TLE

FreshSource: CelesTrak SupGP

Epoch: Sep 14, 2026, 22:10 UTC

1 53079C 22077AN  26257.92409722  .00061167  00000+0  18986-2 0  2570
2 53079  97.2857  73.6741 0001453  92.4562  11.5989 15.33410606    16

Track STARLINK-4327 in real time with AllMySat

Download on the App Store